CAPE
2767 2687 2702 2703 2822 2751 3112 3253 3092 3096 3485 3062 2902 2942 3074 2928 3206 3390 3421 3486 3527 3447 3620 3844 3854 3881 3788 3914 4056 3990 4065 3898 3925 3929 4063 3764 3308 3206 2854 3242 3330 3352
2638 2714 2835 2601 3059 3192 3274 3223 3424 3396 3717 3741 3264 3221 3370 3332 3337 3426 3540 3570 3554 3488 3665 3521 3646 3771 3798 3702 4047 3948 4093 4170 4075 3688 3977 3883 3527 3347 3192 3235 3253 3640
2431 2606 2539 2428 2265 2559 2383 2883 3277 3283 3284 3096 3389 3586 3365 3210 3230 3686 3686 3657 3428 3180 3646 3674 3584 3639 3499 3624 3921 3876 3748 4218 4128 3940 4205 4045 3623 3413 3545 3043 3044 3352
2652 2448 2195 2098 2205 2422 2559 2844 3066 3181 3062 3284 3098 2867 3059 2702 3267 3500 3860 3795 3762 3556 3375 3439 3498 3402 3676 3760 4089 3905 3835 4013 4119 4589 4446 4436 4199 3496 3478 3578 3360 3190
2371 2597 2400 2301 2348 2576 2675 2514 2349 2670 2789 2844 2902 3132 3277 3416 3473 3154 3499 3772 4022 3677 3704 3765 3916 3804 4075 4007 4142 3856 3675 3519 3925 4538 4526 4516 4556 4048 3630 3683 3698 3454
2588 2811 2947 2750 2785 2694 2438 2452 2563 2561 2683 2648 2922 2830 2877 3260 3190 3089 3129 2920 2882 2976 3002 3120 3396 3520 3542 3936 4123 3960 3558 3300 3600 4272 4259 4332 4078 4080 3725 4008 4051 3819
1944 2438 2490 2650 2615 2683 2674 2803 2853 2904 2668 2564 3015 2948 2913 2933 3116 3199 3352 3204 2795 2987 2808 3294 3921 3732 3773 4004 4202 4296 4253 4104 4093 4260 4144 3923 4129 4022 3845 3742 3868 4113
1594 1818 2141 2416 2391 2614 2598 2711 2741 2867 2960 3074 2766 2953 2973 2806 3018 2837 3096 3179 2941 3192 3413 3350 3891 4302 3738 3765 4003 4191 4049 3494 3847 4188 4095 4046 4134 3996 3881 3750 3763 3969
1685 1804 1869 1905 1789 1991 1755 1665 2183 2527 2886 2894 2579 2590 2988 2904 2990 2836 3329 3428 3240 3345 3813 3670 4104 3818 3742 3891 3955 4112 4006 3325 3044 3526 3729 3704 3617 3848 3662 3684 3686 3678
2023 1832 1549 1527 1499 1621 1580 1573 1494 2010 2589 2535 2509 2427 2701 3104 3029 3037 3446 3731 3538 3666 3898 3841 3946 3802 3777 3856 4129 4124 4040 4189 3859 3789 3527 3495 3516 3362 3192 3484 3489 3487
1865 1853 1816 1765 1602 1575 1653 1615 1632 1601 2055 2203 2227 2246 2456 2698 3207 3273 3434 3587 3187 3431 3674 3852 3774 3802 3980 3570 3579 3685 3889 3517 3553 3826 3590 3691 3440 3551 3605 3416 3320 3296
2465 2155 1936 1975 1858 1750 1720 1666 1638 1679 1758 2017 2039 2161 2421 2323 2573 2805 2886 3358 3289 3151 3232 3559 3754 3786 3930 3810 3235 3290 3630 3617 3573 3769 3505 3515 3451 3288 3379 3372 3051 3129
2681 2215 2136 2039 2140 1957 1922 1913 1857 1777 1716 1668 1900 1972 2006 1910 1907 2292 2659 2721 3066 2954 2746 3123 3442 3331 3733 3861 3665 3432 3431 3678 3174 3396 3589 3566 3424 3135 2840 2771 2852 2854
2007 2176 2461 2544 2295 2393 2240 2086 2063 2019 2050 1976 1964 1915 1801 1678 1559 1566 1989 2190 2394 2511 2643 2754 3102 3105 3351 3501 3392 3179 3043 3197 3260 3091 2923 3073 3106 3191 2994 2582 2522 2479
1874 1911 2408 2590 2244 2244 2109 2076 2025 1986 2063 2021 1996 1997 1810 1741 1798 1739 1794 1953 2039 2334 2434 2400 2319 2565 2617 2878 2968 3101 2813 2647 2813 2947 2960 2957 3108 2784 2662 2932 2672 2326
1525 1544 1553 1546 1637 1576 1665 1836 1819 1930 1720 1786 2053 1907 1897 1864 1942 1934 1830 1832 1949 2197 2335 2192 2168 2170 2276 1772 1835 2212 2644 2418 2434 2820 2867 2701 2860 2877 2580 2454 2348 2154
1259 1367 1470 1650 1643 1525 1503 1537 1601 1647 1673 1559 1713 1771 1960 2135 1896 1704 1604 1491 1442 1533 1709 1701 1605 1543 1343 1021 871 786 1234 1727 2267 2584 2835 2899 2593 2768 2808 2397 2206 2324
1054 1082 1120 1149 1246 1354 1366 1482 1679 1800 1783 1713 1558 1548 1810 1556 1553 1867 1989 1565 1494 1329 1228 1170 1326 763 695 674 633 603 584 1144 1365 1706 1902 2174 2312 2185 2214 2174 2179 2055
1040 1064 1071 1098 1132 1162 1326 1493 1577 1647 1700 1713 1629 1460 1413 1398 1627 1440 1737 1650 1749 2008 1752 1546 1426 672 657 581 570 544 536 509 790 1138 1400 1604 1829 2102 2169 2135 2209 2114
806 774 750 896 885 1024 1200 1362 1435 1453 1471 1465 1376 1251 1336 1253 1147 1335 1463 1510 1416 1588 1708 1489 1673 893 825 886 917 938 666 501 718 887 1118 1300 1555 1768 1673 1746 1918 2032
768 843 796 770 779 838 931 1039 1117 1141 1049 1059 1203 1164 1329 1337 1459 1212 1306 1363 1321 1157 1101 1246 810 869 885 918 953 1135 1072 847 1070 909 975 1156 1243 1412 1667 1703 1742 1653
592 636 628 717 816 896 931 959 964 987 1000 976 923 903 1062 1055 1015 1188 1275 1324 1386 1355 1496 1078 855 847 834 861 841 999 1172 1162 1407 1582 1541 1386 1377 1435 1509 1638 1645 1701
429 456 410 398 584 625 657 800 823 901 935 918 850 782 789 805 853 887 1068 1317 1320 1314 1071 828 943 922 953 954 1066 1186 1244 1508 1451 1597 1688 1539 1438 1467 1412 1378 1378 1443
280 270 337 250 237 413 460 475 476 629 718 752 728 715 711 685 674 740 800 825 982 1088 1036 1019 959 937 878 901 1019 1144 1299 1372 1378 1449 1669 1596 1320 1275 1220 1437 1393 881
177 307 312 268 329 302 274 341 351 315 347 433 496 591 624 585 574 554 599 741 826 817 844 872 853 806 844 995 1108 1127 1137 1202 1307 1369 1672 1690 1738 1615 1608 1475 1659 1338
273 294 145 3 206 236 246 226 161 208 148 205 239 255 268 256 300 372 374 320 308 645 692 745 816 869 921 911 866 937 976 998 1060 1070 1118 1160 1197 1260 1618 1874 1908 2018
Wind_Speed
8 10 10 10 10 9 9 8 9 8 7 7 6 5 5 4 4 4 4 4 4 4 4 4 5 5 5 5 5 5 5 5 6 4 5 6 6 6 7 7 8 7
8 9 11 11 12 10 9 9 8 7 6 6 6 6 5 4 4 4 4 4 4 3 4 4 4 5 5 5 5 5 5 4 4 4 4 3 4 5 5 6 6 7
8 9 10 10 10 8 8 8 8 7 7 6 6 5 5 5 4 5 5 5 5 5 5 5 5 5 5 5 5 5 5 5 5 5 5 4 5 5 5 6 5 5
9 9 10 10 10 10 10 10 9 9 8 7 5 6 6 7 6 6 7 7 7 7 7 7 7 7 7 7 6 6 5 5 6 7 6 6 6 6 6 6 6 6
9 10 11 11 12 12 12 11 10 9 8 8 8 8 8 7 7 7 7 8 8 7 8 8 8 8 9 9 8 7 7 6 6 6 6 6 6 5 5 6 6 6
11 11 11 11 12 12 12 11 11 10 9 9 8 9 8 8 7 7 8 7 8 8 8 8 8 9 9 10 9 8 7 6 6 6 5 5 5 6 5 5 5 5
11 12 11 12 11 12 11 12 12 11 11 11 12 10 10 8 8 7 8 9 8 8 8 9 9 8 9 9 8 8 8 6 6 5 4 4 5 5 4 4 4 5
12 13 13 13 12 13 12 12 13 12 12 12 11 10 10 9 8 8 9 9 8 8 9 8 9 8 7 8 7 7 6 7 6 6 5 4 4 4 4 4 4 4
15 14 15 14 13 14 12 12 13 13 14 14 12 12 11 9 9 8 9 8 8 8 9 8 8 8 8 7 7 7 6 6 7 7 6 5 4 4 4 4 3 3
17 17 16 15 15 16 15 14 15 15 16 15 14 13 13 12 10 9 9 8 7 7 8 8 8 8 7 7 7 7 7 8 8 8 8 7 5 5 5 4 3 3
18 18 18 17 17 18 17 16 16 16 16 15 15 15 14 13 13 11 10 9 8 7 7 7 7 8 8 8 8 9 8 8 8 9 8 7 6 6 6 5 3 3
18 18 17 16 16 17 17 17 16 16 16 16 15 15 15 14 13 13 12 11 9 8 8 8 9 9 9 9 8 9 10 9 8 8 8 7 7 6 6 6 5 4
18 17 17 17 18 19 19 19 18 17 17 16 17 15 14 14 13 13 14 13 11 10 9 9 9 10 11 11 11 11 10 9 8 7 7 7 7 6 6 6 6 6
17 17 19 21 22 24 23 22 22 22 21 21 20 18 16 15 15 15 15 15 13 12 11 11 11 12 13 13 13 13 12 10 9 8 7 7 7 7 7 7 7 7
19 21 22 24 25 26 26 26 25 24 25 25 23 21 21 19 18 17 17 16 16 15 14 14 13 13 15 16 15 15 14 12 11 10 8 8 7 7 8 8 8 8
22 24 23 23 26 27 26 26 26 25 25 26 27 26 24 23 22 21 19 19 18 18 17 16 16 16 17 16 15 16 16 15 15 14 12 10 9 9 8 8 8 8
25 25 24 24 26 27 26 26 26 27 27 27 27 27 28 27 24 22 21 21 21 20 19 18 18 19 22 18 15 14 14 14 15 14 14 13 12 11 9 8 8 9
22 25 25 25 26 26 26 27 29 28 28 27 26 26 27 25 24 25 25 24 25 24 23 23 23 33 29 23 18 17 16 15 15 15 15 15 15 13 12 11 9 9
20 21 20 21 23 24 27 29 31 31 28 28 28 29 28 26 24 25 25 27 29 29 29 29 30 36 31 29 25 21 19 17 17 16 15 15 15 16 15 14 12 10
26 25 25 25 25 26 26 28 32 35 36 36 34 33 31 29 27 26 27 28 29 30 30 30 30 33 30 29 28 25 24 22 20 19 18 16 16 16 17 17 16 14
27 26 27 28 28 28 28 28 30 35 40 42 41 39 37 35 33 30 28 27 26 26 28 29 34 33 31 30 30 27 26 22 24 23 23 21 20 19 19 19 18 17
28 26 26 26 25 25 26 27 28 30 35 39 42 41 40 38 37 35 34 33 32 32 33 37 36 35 35 34 31 29 26 26 27 26 25 24 24 23 22 22 22 21
29 29 28 26 24 24 25 25 25 24 26 29 35 39 41 40 39 39 38 36 35 37 42 41 41 41 40 39 37 34 30 32 30 27 26 25 26 26 26 25 25 25
30 31 31 29 27 26 27 26 25 23 24 25 29 33 37 40 40 39 39 39 41 42 41 40 40 41 42 42 42 40 37 37 34 31 29 28 29 29 29 28 28 27
32 32 32 32 31 29 28 29 31 32 29 25 23 24 27 30 34 36 37 37 37 39 43 41 39 39 42 42 44 45 42 41 39 35 32 30 28 27 29 29 30 30
34 34 34 nan 33 31 30 28 27 29 29 27 26 25 24 25 27 29 33 33 31 32 36 37 38 39 40 41 44 47 46 40 39 39 37 35 32 31 28 29 30 30
Wind_Direction
189 196 192 191 186 179 176 177 178 177 177 179 175 174 166 162 167 170 169 173 173 178 190 182 180 179 182 179 179 180 171 158 160 164 149 152 153 154 160 172 179 191
191 198 198 194 196 193 187 181 183 178 186 188 184 191 190 189 193 191 200 199 203 202 214 213 207 200 197 199 199 195 197 193 177 198 187 167 174 175 170 171 180 191
198 202 200 196 193 193 191 196 188 185 191 195 210 209 211 216 218 225 221 220 218 222 237 236 234 229 220 215 212 210 215 215 204 208 214 201 203 202 192 193 198 200
201 202 201 195 195 202 208 207 201 198 202 215 215 225 228 231 240 246 244 245 234 235 239 245 245 246 247 241 238 230 230 224 218 216 215 220 221 212 207 208 203 201
206 208 205 201 202 206 212 210 202 205 203 212 224 236 241 247 249 255 257 257 254 251 255 255 257 257 257 254 255 244 241 237 240 231 221 213 219 223 211 213 207 198
213 216 215 211 212 214 213 213 211 208 205 215 224 234 239 250 251 259 264 262 260 259 255 255 258 260 260 261 261 256 248 241 245 243 223 208 199 208 209 212 202 195
220 221 222 218 218 223 218 219 219 214 212 210 225 231 240 249 257 263 267 267 261 260 257 257 257 254 256 259 263 267 266 259 250 249 227 210 209 192 195 203 201 188
218 225 227 225 225 227 220 222 223 224 223 224 223 232 242 251 260 261 265 268 268 268 265 259 255 254 249 256 262 267 269 267 271 271 254 227 209 194 204 210 207 187
218 223 227 228 225 224 220 216 223 224 228 228 226 230 241 241 251 258 263 267 265 266 268 260 256 245 244 247 251 256 258 256 257 263 259 243 227 222 216 216 193 179
219 218 222 225 224 223 220 217 218 224 231 231 229 227 233 236 234 239 252 258 259 264 265 259 254 249 246 250 256 257 258 265 265 265 261 254 243 232 228 233 210 180
220 221 222 224 224 225 225 223 220 222 230 232 232 230 230 231 233 234 238 243 244 251 256 257 253 251 252 248 252 256 260 259 263 267 267 265 253 243 239 228 208 181
224 224 226 229 232 233 235 233 229 228 230 235 235 233 234 231 234 236 239 241 240 237 238 242 243 247 252 250 250 256 262 261 264 267 268 267 263 256 250 245 227 212
227 226 228 231 236 237 236 237 235 232 232 232 237 237 237 236 239 242 246 245 246 244 240 242 242 244 250 253 254 255 258 260 257 263 265 264 262 257 249 246 239 229
230 231 232 233 234 238 238 237 235 235 235 234 233 235 236 236 237 242 249 253 254 253 252 250 250 250 254 257 259 260 261 262 262 256 251 253 251 252 250 246 243 236
237 239 240 241 240 240 242 242 241 241 242 242 240 236 235 236 238 239 241 248 255 258 258 258 255 255 257 262 267 273 273 271 271 269 263 255 249 241 245 249 246 242
237 236 236 241 241 241 242 244 245 243 242 243 244 243 240 238 237 240 241 243 247 255 259 259 258 256 262 275 272 269 276 277 279 280 277 272 266 255 249 249 247 244
244 242 238 235 238 241 242 242 242 242 242 242 243 244 244 243 241 242 243 245 247 248 251 254 256 256 263 273 279 281 274 277 280 282 284 285 281 275 263 252 247 250
254 254 247 241 244 247 247 246 243 241 241 242 244 245 244 244 246 247 247 248 249 249 247 246 247 248 252 256 265 271 275 272 274 276 279 281 282 280 274 263 251 246
253 254 252 250 251 252 252 251 247 242 239 240 244 245 245 245 245 246 248 247 248 249 248 246 248 243 245 252 260 268 278 276 268 272 273 276 277 279 278 276 270 260
245 248 248 251 254 256 255 254 251 247 243 242 242 245 247 249 248 247 246 247 248 250 250 251 252 245 246 249 253 262 272 276 267 267 268 267 268 270 270 272 272 269
241 245 246 246 249 254 255 254 251 247 246 244 243 244 246 248 248 247 246 246 248 251 253 255 254 243 248 250 256 263 268 270 264 264 264 263 262 263 265 267 268 269
239 239 242 248 251 253 255 256 255 252 249 246 245 242 242 243 245 246 249 250 252 255 258 257 252 246 247 248 249 255 267 262 261 260 261 263 265 265 265 266 267 268
242 246 247 247 246 246 249 248 251 254 254 250 246 242 240 239 240 241 244 247 253 258 257 255 251 245 243 244 244 245 255 258 258 258 258 259 261 263 264 265 266 267
240 241 239 242 247 250 250 251 251 251 254 251 246 242 240 240 242 243 243 245 250 254 256 255 252 248 245 244 242 241 248 255 254 253 253 253 255 256 257 259 260 260
241 245 245 248 251 251 253 257 255 255 255 253 250 246 243 243 243 244 245 246 247 251 251 250 250 250 246 243 241 239 243 249 247 246 244 244 247 251 254 256 258 260
241 244 246 nan 249 249 250 252 253 254 255 256 256 254 250 247 246 244 245 245 247 252 253 250 249 248 246 244 241 239 238 244 245 244 241 240 243 245 247 251 255 257